Location: Harburg
(48.7667°N, 10.6667°E)
Time: 08:48:03
(UTC+00:00)

NOSS 3-2 (C) - Pass Details

Date: 18 September 2020
Orbit: 795 x 1418 km, 63.4° (Epoch: 25 October)

Event Time Altitude Azimuth Distance (km) Brightness Sun altitude
Rises 18:43:36 0° 317° (NW) 3,863 7.8 -13.8°
Reaches altitude 10° 18:46:10 10° 321° (NW) 2,992 7.0 -14.2°
Maximum altitude 18:53:20 57° 40° (NE) 1,435 4.2 -15.4°
Enters shadow 18:58:45 22° 111° (ESE) 2,533 5.0 -16.2°
